This is the latest recevied weather packets stored in our database for station/object K1WJY. If no packets are shown the sender has not sent any weather packets the latest 10 day(s).
| Time | Temp. | Humidity | Pressure | Rain* | Wind** | Luminosity | Snow |
|---|---|---|---|---|---|---|---|
| 1777884565 | 1.67° C | 90% | 1009.3 hPa | 0 mm | - | 0 W/m² | - |
| 1777884262 | 2.22° C | 88% | 1008.9 hPa | 0 mm | - | 0 W/m² | - |
| 1777883957 | 2.22° C | 89% | 1009 hPa | 0 mm | - | 0 W/m² | - |
| 1777883655 | 2.22° C | 88% | 1008.9 hPa | 0 mm | - | 0 W/m² | - |
| 1777883350 | 1.67° C | 90% | 1008.8 hPa | 0 mm | - | 0 W/m² | - |
| 1777883047 | 2.22° C | 89% | 1008.8 hPa | 0 mm | - | 0 W/m² | - |
| 1777882744 | 2.22° C | 88% | 1008.7 hPa | 0 mm | - | 0 W/m² | - |
| 1777882441 | 2.22° C | 89% | 1008.8 hPa | 0 mm | - | 0 W/m² | - |
| 1777882136 | 2.22° C | 89% | 1008.9 hPa | 0 mm | - | 0 W/m² | - |
| 1777881834 | 2.22° C | 88% | 1008.7 hPa | 0 mm | - | 0 W/m² | - |
| 1777881530 | 2.22° C | 89% | 1008.6 hPa | 0 mm | - | 0 W/m² | - |
| 1777881227 | 2.22° C | 89% | 1008.8 hPa | 0 mm | - | 0 W/m² | - |
| 1777880925 | 2.22° C | 90% | 1008.6 hPa | 0 mm | - | 0 W/m² | - |
| 1777880623 | 2.78° C | 86% | 1008.7 hPa | 0 mm | - | 0 W/m² | - |
| 1777880321 | 2.78° C | 85% | 1008.7 hPa | 0 mm | - | 0 W/m² | - |
| 1777880019 | 2.78° C | 85% | 1008.5 hPa | 0 mm | - | 0 W/m² | - |
| 1777879717 | 2.78° C | 85% | 1008.7 hPa | 0 mm | - | 0 W/m² | - |
| 1777879413 | 3.33° C | 84% | 1008.4 hPa | 0 mm | - | 0 W/m² | - |
| 1777879111 | 2.78° C | 85% | 1008.6 hPa | 0 mm | - | 0 W/m² | - |
| 1777878807 | 2.22° C | 87% | 1008.7 hPa | 0 mm | - | 0 W/m² | - |
| 1777878505 | 2.78° C | 87% | 1008.5 hPa | 0 mm | - | 0 W/m² | - |
| 1777878201 | 2.78° C | 86% | 1008.7 hPa | 0 mm | - | 0 W/m² | - |
| 1777877897 | 2.22° C | 87% | 1008.2 hPa | 0 mm | - | 0 W/m² | - |
| 1777877594 | 2.78° C | 85% | 1008.5 hPa | 0 mm | - | 0 W/m² | - |
| 1777877291 | 3.33° C | 83% | 1008.1 hPa | 0 mm | - | 0 W/m² | - |
* Rain latest hour (hover to see other rain measurements)
** Current wind speed in m/s (hover to see current wind gust speed)